[Iaude] MPEC F43: 2024 FD1 [a=1.51,e=0.34,i=1.0,H=29.4]

mpec at cfa.harvard.edu mpec at cfa.harvard.edu
Tue Mar 19 17:52:43 EDT 2024


M.P.E.C. 2024-F43                                Issued 2024 March 19, 21:51 UT

     The Minor Planet Electronic Circulars contain information on unusual
         minor planets, routine data on comets and natural satellites,
         and occasional editorial announcements.  They are published
    on behalf of Division F of the International Astronomical Union by the
          Minor Planet Center, Smithsonian Astrophysical Observatory,
                          Cambridge, MA 02138, U.S.A.
			  
             Prepared using the Tamkin Foundation Computer Network

                              MPC at CFA.HARVARD.EDU
            URL https://www.minorplanetcenter.net/    ISSN 1523-6714

                                    2024 FD1                                    


Observations:
     K24F01D*1C2024 03 18.17823211 05 36.114+16 44 13.74         20.67GVEF043G96
     K24F01D 1C2024 03 18.18385511 05 48.793+16 42 57.49         19.84GVEF043G96
     K24F01D 1C2024 03 18.18947511 06 01.706+16 41 38.11         20.12GVEF043G96
     K24F01D 1C2024 03 18.19510611 06 14.321+16 40 20.03         20.21GVEF043G96
     K24F01D KB2024 03 18.21243 11 06 41.501+16 35 00.31         20.1 GVEF043734
     K24F01D 1C2024 03 18.21921411 07 09.649+16 34 36.05         20.02GVEF043G96
     K24F01D 1C2024 03 18.21949011 07 10.272+16 34 31.12         20.30GVEF043G96
     K24F01D 1C2024 03 18.21976511 07 10.884+16 34 27.52         19.97GVEF043G96
     K24F01D KB2024 03 18.22056 11 06 59.974+16 33 01.37         19.8 GVEF043734
     K24F01D KB2024 03 18.22859 11 07 18.408+16 31 01.96         19.9 GVEF043734
     K24F01D KC2024 03 19.16822311 55 33.445+11 28 11.93         19.71GVEF043I52
     K24F01D KC2024 03 19.16890211 55 35.656+11 27 56.02         19.76GVEF043I52
     K24F01D KC2024 03 19.16958611 55 38.024+11 27 39.31         19.97GVEF043I52
     K24F01D KC2024 03 19.17027711 55 40.256+11 27 23.62         19.78GVEF043I52
     K24F01D KC2024 03 19.23208311 58 43.14 +11 01 03.7          19.6 GVEF043H21
     K24F01D KC2024 03 19.23253 11 58 51.768+11 00 59.65         19.9 GVEF043H36
     K24F01D KC2024 03 19.23366611 58 48.36 +11 00 23.8          19.6 GVEF043H21
     K24F01D KC2024 03 19.23524811 58 53.55 +10 59 44.2          19.7 GVEF043H21
     K24F01D KC2024 03 19.24017 11 59 17.122+10 57 48.64         19.6 GVEF043H36
     K24F01D KC2024 03 19.85383912 40 30.73 +06 00 10.6          19.8 GXEF043I93
     K24F01D KC2024 03 19.86230512 41 00.74 +05 55 59.3          18.9 GVEF043104
     K24F01D KC2024 03 19.86519312 41 12.61 +05 54 27.5          19.1 GVEF043104
     K24F01D KC2024 03 19.86808012 41 24.51 +05 52 53.9          18.8 GVEF043104
     K24F01D KB2024 03 19.88702612 42 48.86 +05 42 22.3          19.3 GXEF043I93

Observer details:
104 San Marcello Pistoiese.  Observers P. Bacci, M. Maestripieri.  Measurers
    P. Bacci, L. Tesi, G. Fagioli.  0.60-m F4 Reflector + CCD.
734 Farpoint Observatory, Eskridge.  Observers D. Cromer, G. Hug, D. Goodin,
    R. Valentine, P. Lessig.  Measurer G. Hug.  0.69-m f/3.54 reflector + CMO.
G96 Mt. Lemmon Survey.  Observer D. Rankin.  Measurers T. Beuden, V. F.
    Carvajal, D. Fay, J. B. Fazekas, D. C. Fuls, A. R. Gibbs, A. D. Grauer, H.
    Groeller, J. K. Hogan, R. A. Kowalski, S. M. Larson, G. J. Leonard, D.
    Rankin, R. L. Seaman, F. C. Shelly, K. W. Wierzchos.  1.5-m reflector +
    10K CCD.
H21 Astronomical Research Observatory, Westfield.  Observer R. Holmes.
    Measurers T. Linder, R. Holmes, L. Horn.  0.76-m f/3.0 astrograph + CCD.
H36 Sandlot Observatory, Scranton.  Observer G. Hug.  0.56-m f/4.8 .56 meter
    Reflector + CCD.
I52 Steward Observatory, Mt. Lemmon Station.  Observer R. A. Kowalski.
    Measurers T. Beuden, V. F. Carvajal, D. Fay, J. B. Fazekas, D. C. Fuls, A.
    R. Gibbs, A. D. Grauer, H. Groeller, J. K. Hogan, R. A. Kowalski, S. M.
    Larson, G. J. Leonard, D. Rankin, R. L. Seaman, F. C. Shelly, K. W.
    Wierzchos.  1.0-m prime focus + CCD.
I93 St Pardon de Conques.  Observer F. Losse.  0.40-m f/3.7 reflector + CCD.

Orbital elements:
2024 FD1                                                 Earth MOID = 0.0010 AU
Epoch 2024 Mar. 31.0 TT = JDT 2460400.5                 Veres                   
M   0.05406              (2000.0)            P               Q                  
n   0.53359953     Peri.  188.11194     -0.97797768     +0.20870630             
a   1.5054249      Node     3.93517     -0.19053046     -0.89052190             
e   0.3374456      Incl.    0.96404     -0.08519270     -0.40424303             
P   1.85           H   29.40          G   0.15           U   6                  
Residuals in seconds of arc
240318 G96  0.3+  0.8-    240318 734  0.5-  0.3+    240319 H21  0.1+  0.0
240318 G96 (2.2-  1.0+)   240318 734  0.5+  0.0     240319 H21  0.3-  0.0
240318 G96  1.1-  0.0     240319 I52  0.4+  0.1-    240319 H36  0.5+  0.3+
240318 G96 (4.6-  0.9+)   240319 I52  0.4-  0.0     240319 I93  0.4+  0.1+
240318 734  0.4+  0.4-    240319 I52  0.9+  0.6-    240319 104  0.2-  0.5-
240318 G96  0.1-  0.4+    240319 I52  0.2-  0.1-    240319 104  0.3-  0.5+
240318 G96  0.2-  0.5-    240319 H21  0.2+  0.3+    240319 104  0.2+  0.2-
240318 G96  0.4-  0.2-    240319 H36  0.9-  0.7+    240319 I93  0.5+  0.8-

Ephemeris:
2024 FD1                 a,e,i = 1.51, 0.34, 1                   q = 0.9974
Date    TT    R. A. (2000) Decl.     Delta      r    Elong.  Phase     V
2024 02 18    08 38 20.6 +25 02 47   0.09673 1.0774   156.2    21.7    25.5
...
2024 03 04    08 44 33.3 +25 38 44   0.04995 1.0317   142.5    35.8    24.4
...
2024 03 12    09 12 54.5 +24 45 41   0.02680 1.0146   140.9    38.2    23.1
...
2024 03 18    10 57 50.0 +17 29 48   0.01104 1.0056   158.9    20.8    20.7
2024 03 19    11 45 05.0 +12 40 37   0.0090631.0044   167.7    12.2    19.9
2024 03 20    12 50 17.8 +04 52 38   0.0077101.0033   166.2    13.7    19.6
...
2024 03 26    18 09 19.9 -25 59 00   0.01669 0.9986    93.4    85.7    23.5
...
2024 04 03    19 18 15.3 -27 20 54   0.03855 0.9979    86.0    91.8    25.6
...
2024 04 18    19 45 23.8 -27 18 17   0.07861 1.0136    94.7    80.8    26.7

M. P. C. Staff               (C) Copyright 2024 MPC           M.P.E.C. 2024-F43





More information about the Iaude mailing list